Tracking 28096 objects as of 29-Sep-2023
HD Live streaming from Space Station
objects crossing your sky now

STARLINK-6374

Track STARLINK-6374 now!
10-day predictions
STARLINK-6374 is classified as:


NORAD ID: 57338
Int'l Code: 2023-099L
Perigee: 565.3 km
Apogee: 567.1 km
Inclination: 43.0 °
Period: 95.8 minutes
Semi major axis: 6937 km
RCS: Unknown
Launch date: July 16, 2023
Source: United States (US)
Launch site: AIR FORCE EASTERN TEST RANGE (AFETR)
Your satellite tracking list
Your tracking list is empty




NASA's NSSDC Master Catalog

Two Line Element Set (TLE):
1 57338U 23099L   23271.81086572  .00002521  00000-0  20156-3 0  9998
2 57338  43.0035  60.6869 0001326 278.5469  81.5223 15.02546831 11807
Source of the keplerian elements: AFSPC